Regional Weather Roundup
Issued by NWS

Home | Current Version | Previous Version | Graphics & Text | Print | Product List | Glossary On
Versions: 1 2 3 4 5 6 7 8 9 10 11 12 13 14 15 16 17 18 19 20 21 22 23 24 25 26 27 28 29 30 31 32 33 34 35 36 37 38 39 40 41 42 43 44 45 46 47 48 49 50
000
ASUS43 KMPX 250001
RWRMN
WEATHER ROUNDUP FOR MINNESOTA
NATIONAL WEATHER SERVICE TWIN CITIES/CHANHASSEN MN
600 PM CST FRI NOV 24 2017


NOTE: "FAIR" INDICATES FEW OR NO CLOUDS BELOW 12,000 FEET WITH NO
SIGNIFICANT WEATHER AND/OR OBSTRUCTIONS TO VISIBILITY. N/A MEANS
CURRENT SKY AND/OR WEATHER CONDITIONS ARE NOT AVAILABLE.

MNZ060>063-068>070-250100-
   Twin Cities Metro

CITY           SKY/WX    TMP DP  RH WIND       PRES   REMARKS
TWIN CITIES    CLEAR     46  40  79 W8        29.57R
6HR MIN TEMP:  45; 6HR MAX TEMP:  60; 6HR PCP: TRACE;

ST PAUL        CLEAR     47  40  76 NW12      29.57R
CRYSTAL        CLEAR     45  36  70 W8        29.56R
BLAINE         CLEAR     45  39  81 W9        29.56R
LAKEVILLE      CLEAR     45  39  81 W8        29.58R
EDEN PRAIRIE   CLEAR     45  38  76 W8        29.58R
6HR MIN TEMP:  45; 6HR MAX TEMP:  61; 6HR PCP: TRACE;

SOUTH ST PAUL  CLEAR     48  39  70 NW7       29.56R
LAKE ELMO      FAIR      45  41  87 W9        29.56R
$$
MNZ001>005-007-008-013>017-022>024-027-028-250100-
   Northwest Minnesota

CITY           SKY/WX    TMP DP  RH WIND       PRES   REMARKS
BEMIDJI        CLEAR     35  32  87 W12       29.55R WCI  27
HALLOCK        CLEAR     36  32  87 NW13      29.58R
ROSEAU         MOCLDY    37  32  81 W12G17    29.53R
WARROAD        CLOUDY    37  32  81 W13       29.51R
CROOKSTON      CLEAR     37  34  87 NW13      29.61R
FOSSTON        PTCLDY    36  32  87 W7        29.60R
DETROIT LAKES  CLEAR     37  34  87 W8        29.62R
MOORHEAD       CLEAR     43  34  70 W15       29.65R
PARK RAPIDS    CLEAR     38  32  79 W12       29.58R
MAHNOMEN       FAIR      35  33  90 W9        29.60R WCI  28
$$
MNZ006-009>011-018-025>026-250100-
   North Central Minnesota

CITY           SKY/WX    TMP DP  RH WIND       PRES   REMARKS
BAUDETTE       CLOUDY    38  28  67 W13G22    29.48R
FLAG ISLAND    CLOUDY    34  27  75 NW18G24   29.49R WCI  23
INTL FALLS     CLOUDY    38  28  67 NW8       29.46R
6HR MIN TEMP:  38; 6HR MAX TEMP:  41;

WASKISH        CLOUDY    37  32  81 W10       29.52R
BIG FORK       CLOUDY    39  34  81 W5        29.50R
LONGVILLE      CLEAR     37  34  87 W13G18    29.55R
GRAND RAPIDS   CLOUDY    39  34  82 W12       29.52R
CRANE LAKE     CLOUDY    37  28  70 NW5       29.47R
ORR            CLOUDY    37  28  70 NW9       29.44R
COOK           CLOUDY    37  32  81 W3        29.47R
WALKER         FAIR      37  32  82 W14       29.55R
$$
MNZ012-019>021-037-250100-
   Northeast Minnesota

CITY           SKY/WX    TMP DP  RH WIND       PRES   REMARKS
DULUTH         CLOUDY    39  36  89 NW15G28   29.45R
6HR MIN TEMP:  38; 6HR MAX TEMP:  41; 6HR PCP:  0.03;

ELY            CLOUDY    37  30  75 NW7       29.42R
HIBBING        MOCLDY    38  34  85 W8        29.47R
EVELETH        MOCLDY    37  32  81 W8        29.47R
DULUTH HARBOR  CLOUDY    43  37  81 W12G17    29.49R
TWO HARBORS    MOCLDY    43  37  81 NW5G17    29.42R
SILVER BAY     CLEAR     39  36  87 W6        29.39R
GRAND MARAIS     N/A     42  34  73 SW5       29.37R
G MARAIS ARPRT CLOUDY    36  28  75 NW8       29.35R
$$
MNZ029>031-032-039>041-046>048-054>057-064-250100-
   West Central Minnesota

CITY           SKY/WX    TMP DP  RH WIND       PRES   REMARKS
FERGUS FALLS   CLEAR     37  32  81 NW13      29.67R
WHEATON        CLEAR     43  30  61 W8          N/A
MORRIS         CLEAR     41  34  75 NW12      29.66R
ALEXANDRIA     CLEAR     42  35  76 NW12      29.64R
ELBOW LAKE     FAIR      38  33  83 NW9       29.65R HAZE
WADENA         CLEAR     39  34  81 W10       29.61R
GLENWOOD       CLEAR     41  36  81 W15       29.64R
APPLETON       CLEAR     45  34  65 W10       29.68R
BENSON         CLEAR     39  34  81 NW9       29.68R
ORTONVILLE     CLEAR     45  34  65 NW9       29.70R
MADISON        CLEAR     48  36  61 NW14      29.70R
WILLMAR        FAIR      45  37  76 W12       29.67R
$$
MNZ033>034-036-042>043-049>051-058-059-250100-
   Central Minnesota

CITY           SKY/WX    TMP DP  RH WIND       PRES   REMARKS
ST CLOUD       CLEAR     43  36  76 W15       29.59R
6HR MIN TEMP:  43; 6HR MAX TEMP:  57; 6HR PCP: TRACE;

SAUK CENTRE    FAIR      38  34  85 W7        29.62R
PAYNESVILLE    CLEAR     42  38  87 W12       29.63R
AITKIN         CLEAR     39  34  81 W6        29.52R
PINE RIVER     CLEAR     37  32  81 W10G16    29.60R
BRAINERD       CLEAR     42  34  73 W9        29.56R
STAPLES        CLEAR     37  34  87 W12G20    29.59R
LONG PRAIRIE   FAIR      41  32  70 W13G18    29.61R
LITTLE FALLS   CLEAR     41  32  70 W13       29.59R
LITCHFIELD     CLEAR     45  39  81 W10       29.63R
BUFFALO        CLEAR     44  35  71 W12G21    29.61R
MAPLE LAKE     CLEAR     44  38  77 W10G17    29.61R
HUTCHINSON     CLEAR     44  39  81 W13       29.64R
$$
MNZ037-044-045-052-053-250100-
   East Central Minnesota

CITY           SKY/WX    TMP DP  RH WIND       PRES   REMARKS
PRINCETON      CLEAR     45  37  76 W9        29.57R
MORA           CLEAR     41  36  81 W7        29.54R
CAMBRIDGE      CLEAR     46  36  66 W10       29.56R
RUSH CITY      CLEAR     40  37  89 W5        29.54R
MOOSE LAKE     CLEAR     39  36  87 W6        29.49R
HINCKLEY       FAIR      43  37  81 W7        29.52R
CLOQUET        CLOUDY    39  36  87 W9        29.48R
MCGREGOR       CLEAR     37  36  93 W3        29.51R
$$
MNZ071>073-080-081-089-090-097-098-250100-
   Southwest Minnesota

CITY           SKY/WX    TMP DP  RH WIND       PRES   REMARKS
MONTEVIDEO     CLEAR     45  34  65 NW9       29.68R
GRANITE FALLS  CLEAR     45  36  70 W13       29.69R
CANBY          CLEAR     47  35  61 NW15      29.72R
MARSHALL       CLEAR     45  34  65 NW14      29.70R
REDWOOD FALLS  CLEAR     48  35  60 NW15G23   29.66R
OLIVIA         CLEAR     45  36  70 W13       29.66R
PIPESTONE      CLEAR     45  34  65 NW9       29.72R
WINDOM         CLEAR     46  30  53 W16       29.69R
WORTHINGTON    CLEAR     45  36  70 NW14      29.72R
JACKSON        PTCLDY    45  36  70 NW14      29.69R
SLAYTON        CLEAR     45  36  70 NW15      29.71R
$$
MNZ065>067-074>077-082>085-091>093-250100-
   South Central Minnesota

CITY           SKY/WX    TMP DP  RH WIND       PRES   REMARKS
MANKATO        CLEAR     46  38  73 NW15G29   29.63R
NEW ULM        CLEAR     46  37  71 NW14G21   29.65R
ST JAMES       CLEAR     46  37  71 NW15      29.67R
FAIRMONT       CLEAR     48  38  68 NW18      29.66R
GLENCOE        CLEAR     46  38  75 W15G21    29.61R
FARIBAULT      CLEAR     46  39  76 W10       29.60R
OWATONNA       CLEAR     46  39  76 NW15      29.59R
WASECA         CLEAR     45  37  76 NW15      29.63R
ALBERT LEA     CLEAR     48  39  71 NW12G23   29.60R
$$
MNZ078>079-086>088-094>096-250100-
   Southeast Minnesota

CITY           SKY/WX    TMP DP  RH WIND       PRES   REMARKS
ROCHESTER      CLOUDY    49  45  86 NW20G28   29.54R
6HR MIN TEMP:  49; 6HR MAX TEMP:  61; 6HR PCP:  0.01;

RED WING       CLOUDY    48  41  76 NW7       29.53R
STANTON        CLEAR     47  40  78 NW9       29.56R
DODGE CENTER   CLEAR     46  41  81 NW18      29.57R
WINONA         LGT RAIN  54  46  76 W12       29.50R
AUSTIN         CLEAR     48  43  81 NW20G30   29.57R
PRESTON        CLOUDY    50  45  81 NW14G22   29.53R
$$
ABBREVIATIONS USED IN REMARKS
   TC - TEMPERATURES IN CELSIUS
  WCI - WIND CHILL INDEX
   HX - HEAT INDEX
  VSB - VISIBILITY
$$



USA.gov is the U.S. government's official web portal to all federal, state and local government web resources and services.